This is the latest recevied weather packets stored in our database for station/object DO1MIT-10. If no packets are shown the sender has not sent any weather packets the latest 10 day(s).
| Time | Temp. | Humidity | Pressure | Rain* | Wind** | Luminosity | Snow |
|---|---|---|---|---|---|---|---|
| 1777736082 | 24.44° C | 37% | 1020.9 hPa | - | - | - | - |
| 1777735182 | 25.56° C | 37% | 1021 hPa | - | - | - | - |
| 1777734282 | 26.67° C | 38% | 1021.2 hPa | - | - | - | - |
| 1777733382 | 27.22° C | 37% | 1021.5 hPa | - | - | - | - |
| 1777732482 | 27.22° C | 38% | 1021.7 hPa | - | - | - | - |
| 1777731582 | 27.22° C | 38% | 1021.8 hPa | - | - | - | - |
| 1777730682 | 27.78° C | 39% | 1022 hPa | - | - | - | - |
| 1777729782 | 26.67° C | 39% | 1022.2 hPa | - | - | - | - |
| 1777728882 | 26.11° C | 39% | 1022.4 hPa | - | - | - | - |
| 1777727981 | 25° C | 39% | 1022.6 hPa | - | - | - | - |
| 1777727081 | 24.44° C | 40% | 1022.9 hPa | - | - | - | - |
| 1777726181 | 23.89° C | 40% | 1023 hPa | - | - | - | - |
| 1777725281 | 23.89° C | 40% | 1023.3 hPa | - | - | - | - |
| 1777724381 | 23.89° C | 40% | 1023.5 hPa | - | - | - | - |
| 1777723481 | 23.33° C | 40% | 1023.6 hPa | - | - | - | - |
| 1777722581 | 23.89° C | 41% | 1023.9 hPa | - | - | - | - |
| 1777721681 | 23.33° C | 42% | 1024.1 hPa | - | - | - | - |
| 1777720781 | 23.33° C | 42% | 1024.3 hPa | - | - | - | - |
| 1777719881 | 23.33° C | 43% | 1024.4 hPa | - | - | - | - |
| 1777718980 | 22.78° C | 44% | 1024.7 hPa | - | - | - | - |
| 1777718080 | 22.78° C | 44% | 1024.8 hPa | - | - | - | - |
| 1777717180 | 22.78° C | 46% | 1025 hPa | - | - | - | - |
| 1777716280 | 22.22° C | 47% | 1025.2 hPa | - | - | - | - |
| 1777715380 | 21.67° C | 48% | 1025.4 hPa | - | - | - | - |
| 1777714480 | 21.67° C | 49% | 1025.6 hPa | - | - | - | - |
* Rain since midnight (hover to see other rain measurements)
** Current wind speed in m/s (hover to see current wind gust speed)